Погода в Софиевке

Украина / Днепропетровская область     48°02′49″N   33°52′04″E
темп.,
°C
ветер,
м/с
пор.,
м/с
влажн.,
%
обл.,
%
осадки,
мм/ч
давл.,
гПа
погр.,
м
14 мая, пт
пт1400:00+12вюв348299 0.0 101157
03:00+11вюв348710 0.0 101049
06:00+12вюв35955 0.0 100999
09:00+17ю4674100 0.0 1009493
12:00+22ююз5748100 0.1 10091143
15:00+22ю6748100 0.1 10091484
18:00+22ю68550 0.0 1009942
21:00+16юз410760 0.0 1010214
15 мая, сб
сб1500:00+13ююз488135 0.0 1011144
03:00+11ююз49880 0.0 1012173
06:00+12ююз37920 0.0 1012152
09:00+18юз46661 0.0 1013547
12:00+22юз5648100 0.0 10131899
15:00+23юз4544100 0.0 10132275
18:00+21юз3658100 0.0 1013296
21:00+17зюз226438 0.0 101313
16 мая, вс
вс1600:00+15зсз11705 0.0 101311
03:00+14с22750 0.0 101310
06:00+14св337816 0.0 101341
09:00+20всв4560100 0.0 1013418
12:00+24в454799 0.0 10121607
15:00+25в5542100 0.0 10112019
18:00+24св4652100 0.0 1009585
21:00+19ссв4116899 0.0 1008197
17 мая, пн
пн1700:00+17ссв61379100 2.1 1007251
03:00+16с4692100 6.3 1006126
06:00+16с3592100 2.6 1005110
09:00+20св477558 2.8 1003323
12:00+24юз12597 0.0 10041034
15:00+26юз335465 0.4 10031393
18:00+22з657414 1.9 1004816
21:00+16з589012 2.4 1007281
18 мая, вт
вт1800:00+14з369423 0.0 1008178
03:00+13з22955 0.0 100943
06:00+14юз22915 0.0 101070
09:00+19ю347615 0.0 1010594
12:00+23юз56565 0.1 10111640
15:00+24юз4649100 0.1 10102473
18:00+24юз685128 0.0 1010802
21:00+17ююз4117141 0.0 1012198